When you browse on this site, cookies collect data to enhance your experience and personalize the content and advertising you see.
Visit our Privacy Policy to learn more. By continuing to use the site, you agree to this use of cookies and data.
  • In Netherlands
  • List of Countries
  • For 7 days
  • Water Temperature
  • Weather Map
  • Weather Widgets
  • user-avatar
    Login

    Hourly Weather Mochudi

    Today, 4 June, Thursday

    Time Temperature Precipitation Wind Pressure Humidity
    00:00 +14°C° 0 mm 0 mps 683 mmHg 42%
    01:00 +13°C° 0 mm 0 mps 683 mmHg 43%
    02:00 +13°C° 0 mm 0 mps 683 mmHg 47%
    03:00 +13°C° 0 mm 1 mps 683 mmHg 49%
    04:00 +12°C° 0 mm 1 mps 682 mmHg 51%
    05:00 +12°C° 0 mm 1 mps 682 mmHg 53%
    06:00 +12°C° 0 mm 1 mps 683 mmHg 51%
    07:00 +13°C° 0 mm 1 mps 683 mmHg 50%
    08:00 +14°C° 0 mm 1 mps 684 mmHg 48%
    09:00 +16°C° 0 mm 1 mps 684 mmHg 42%
    10:00 +19°C° 0 mm 2 mps 685 mmHg 36%
    11:00 +22°C° 0 mm 3 mps 685 mmHg 30%
    12:00 +24°C° 0 mm 3 mps 685 mmHg 27%
    13:00 +25°C° 0 mm 3 mps 684 mmHg 23%
    14:00 +26°C° 0 mm 3 mps 684 mmHg 20%
    15:00 +25°C° 0 mm 3 mps 684 mmHg 21%
    16:00 +25°C° 0 mm 3 mps 684 mmHg 23%
    17:00 +24°C° 0 mm 2 mps 684 mmHg 24%
    18:00 +21°C° 0 mm 2 mps 684 mmHg 27%
    19:00 +19°C° 0 mm 2 mps 684 mmHg 30%
    20:00 +18°C° 0 mm 1 mps 684 mmHg 33%
    21:00 +16°C° 0 mm 1 mps 684 mmHg 36%
    22:00 +15°C° 0 mm 2 mps 684 mmHg 40%
    23:00 +15°C° 0 mm 2 mps 684 mmHg 43%

    Tomorrow, 5 June, Friday

    Time Temperature Precipitation Wind Pressure Humidity
    00:00 +14°C° 0 mm 2 mps 684 mmHg 47%
    01:00 +13°C° 0 mm 1 mps 683 mmHg 51%
    02:00 +12°C° 0 mm 1 mps 683 mmHg 55%
    03:00 +12°C° 0 mm 1 mps 683 mmHg 60%
    04:00 +11°C° 0 mm 1 mps 683 mmHg 64%
    05:00 +11°C° 0 mm 1 mps 684 mmHg 69%
    06:00 +11°C° 0 mm 1 mps 684 mmHg 68%
    07:00 +12°C° 0 mm 1 mps 684 mmHg 68%
    08:00 +12°C° 0 mm 2 mps 685 mmHg 67%
    09:00 +15°C° 0 mm 2 mps 685 mmHg 60%
    10:00 +17°C° 0 mm 3 mps 686 mmHg 53%
    11:00 +20°C° 0 mm 3 mps 686 mmHg 45%
    12:00 +21°C° 0 mm 3 mps 686 mmHg 41%
    13:00 +22°C° 0 mm 3 mps 685 mmHg 36%
    14:00 +24°C° 0 mm 2 mps 685 mmHg 31%
    15:00 +24°C° 0 mm 2 mps 685 mmHg 31%
    16:00 +23°C° 0 mm 2 mps 684 mmHg 31%
    17:00 +23°C° 0 mm 1 mps 684 mmHg 31%
    18:00 +21°C° 0 mm 1 mps 684 mmHg 36%
    19:00 +19°C° 0 mm 1 mps 684 mmHg 41%
    20:00 +15°C° 0 mm 0 mps 684 mmHg 45%
    21:00 +15°C° 0 mm 1 mps 684 mmHg 47%
    22:00 +15°C° 0 mm 1 mps 685 mmHg 48%
    23:00 +14°C° 0 mm 1 mps 685 mmHg 49%

    Day after tomorrow, 6 June, Saturday

    Time Temperature Precipitation Wind Pressure Humidity
    00:00 +14°C° 0 mm 1 mps 684 mmHg 51%
    01:00 +12°C° 0 mm 0 mps 684 mmHg 53%
    02:00 +12°C° 0 mm 0 mps 684 mmHg 54%
    03:00 +12°C° 0 mm 1 mps 684 mmHg 57%
    04:00 +12°C° 0 mm 1 mps 684 mmHg 60%
    05:00 +11°C° 0 mm 1 mps 684 mmHg 63%
    06:00 +11°C° 0 mm 1 mps 684 mmHg 67%
    07:00 +12°C° 0 mm 2 mps 685 mmHg 71%
    08:00 +12°C° 0 mm 2 mps 685 mmHg 74%
    09:00 +15°C° 0 mm 2 mps 686 mmHg 64%
    10:00 +18°C° 0 mm 1 mps 686 mmHg 54%
    11:00 +21°C° 0 mm 1 mps 687 mmHg 43%
    12:00 +21°C° 0 mm 2 mps 686 mmHg 38%
    13:00 +24°C° 0 mm 2 mps 686 mmHg 32%
    14:00 +25°C° 0 mm 2 mps 685 mmHg 27%
    15:00 +24°C° 0 mm 2 mps 685 mmHg 27%
    16:00 +24°C° 0 mm 2 mps 685 mmHg 28%
    17:00 +23°C° 0 mm 2 mps 685 mmHg 28%
    18:00 +21°C° 0 mm 1 mps 685 mmHg 33%
    19:00 +19°C° 0 mm 1 mps 685 mmHg 38%
    20:00 +16°C° 0 mm 1 mps 685 mmHg 43%
    21:00 +15°C° 0 mm 1 mps 685 mmHg 44%
    22:00 +15°C° 0 mm 1 mps 685 mmHg 46%
    23:00 +14°C° 0 mm 1 mps 685 mmHg 47%

    7 June, Sunday

    Time Temperature Precipitation Wind Pressure Humidity
    00:00 +14°C° 0 mm 1 mps 685 mmHg 50%
    01:00 +13°C° 0 mm 1 mps 685 mmHg 52%
    02:00 +13°C° 0 mm 1 mps 684 mmHg 54%
    03:00 +12°C° 0 mm 1 mps 684 mmHg 57%
    04:00 +11°C° 0 mm 1 mps 684 mmHg 60%
    05:00 +11°C° 0 mm 1 mps 684 mmHg 62%
    06:00 +11°C° 0 mm 1 mps 685 mmHg 61%
    07:00 +11°C° 0 mm 1 mps 685 mmHg 60%
    08:00 +12°C° 0 mm 1 mps 686 mmHg 59%
    09:00 +15°C° 0 mm 1 mps 686 mmHg 51%
    10:00 +18°C° 0 mm 1 mps 687 mmHg 44%
    11:00 +21°C° 0 mm 1 mps 687 mmHg 36%
    12:00 +23°C° 0 mm 2 mps 686 mmHg 32%
    13:00 +24°C° 0 mm 2 mps 686 mmHg 28%
    14:00 +25°C° 0 mm 2 mps 685 mmHg 24%
    15:00 +24°C° 0 mm 1 mps 685 mmHg 25%
    16:00 +24°C° 0 mm 1 mps 685 mmHg 26%
    17:00 +23°C° 0 mm 1 mps 684 mmHg 27%
    18:00 +21°C° 0 mm 1 mps 684 mmHg 31%
    19:00 +19°C° 0 mm 1 mps 684 mmHg 35%
    20:00 +16°C° 0 mm 1 mps 684 mmHg 39%
    21:00 +15°C° 0 mm 1 mps 684 mmHg 40%
    22:00 +15°C° 0 mm 1 mps 684 mmHg 42%
    23:00 +14°C° 0 mm 1 mps 684 mmHg 43%

    8 June, Monday

    Time Temperature Precipitation Wind Pressure Humidity
    00:00 +14°C° 0 mm 1 mps 684 mmHg 44%
    01:00 +13°C° 0 mm 1 mps 684 mmHg 46%
    02:00 +12°C° 0 mm 0 mps 684 mmHg 47%
    03:00 +12°C° 0 mm 1 mps 683 mmHg 49%
    04:00 +12°C° 0 mm 1 mps 683 mmHg 51%
    05:00 +11°C° 0 mm 1 mps 683 mmHg 53%
    06:00 +11°C° 0 mm 1 mps 684 mmHg 52%
    07:00 +12°C° 0 mm 1 mps 684 mmHg 52%
    08:00 +12°C° 0 mm 1 mps 685 mmHg 51%
    09:00 +15°C° 0 mm 1 mps 685 mmHg 45%
    10:00 +18°C° 0 mm 2 mps 685 mmHg 38%
    11:00 +21°C° 0 mm 2 mps 686 mmHg 31%
    12:00 +23°C° 0 mm 2 mps 685 mmHg 28%
    13:00 +24°C° 0 mm 2 mps 684 mmHg 24%
    14:00 +25°C° 0 mm 2 mps 684 mmHg 21%
    15:00 +24°C° 0 mm 2 mps 683 mmHg 22%
    16:00 +24°C° 0 mm 2 mps 683 mmHg 22%
    17:00 +23°C° 0 mm 1 mps 683 mmHg 23%
    18:00 +21°C° 0 mm 1 mps 683 mmHg 27%
    19:00 +19°C° 0 mm 1 mps 683 mmHg 31%
    20:00 +16°C° 0 mm 1 mps 683 mmHg 35%
    21:00 +15°C° 0 mm 1 mps 683 mmHg 37%
    22:00 +14°C° 0 mm 0 mps 683 mmHg 38%
    23:00 +13°C° 0 mm 0 mps 683 mmHg 40%

    9 June, Tuesday

    Time Temperature Precipitation Wind Pressure Humidity
    00:00 +13°C° 0 mm 0 mps 683 mmHg 41%
    01:00 +13°C° 0 mm 1 mps 682 mmHg 43%
    02:00 +13°C° 0 mm 1 mps 682 mmHg 44%
    03:00 +12°C° 0 mm 1 mps 682 mmHg 47%
    04:00 +11°C° 0 mm 1 mps 682 mmHg 49%
    05:00 +11°C° 0 mm 1 mps 682 mmHg 52%
    06:00 +11°C° 0 mm 1 mps 682 mmHg 51%
    07:00 +11°C° 0 mm 1 mps 683 mmHg 50%
    08:00 +12°C° 0 mm 1 mps 683 mmHg 49%
    09:00 +15°C° 0 mm 2 mps 684 mmHg 42%
    10:00 +18°C° 0 mm 3 mps 684 mmHg 35%
    11:00 +21°C° 0 mm 4 mps 685 mmHg 28%
    12:00 +22°C° 0 mm 4 mps 684 mmHg 25%
    13:00 +25°C° 0 mm 4 mps 683 mmHg 22%
    14:00 +26°C° 0 mm 4 mps 683 mmHg 18%
    15:00 +25°C° 0 mm 3 mps 682 mmHg 20%
    16:00 +24°C° 0 mm 3 mps 682 mmHg 21%
    17:00 +23°C° 0 mm 2 mps 681 mmHg 22%
    18:00 +20°C° 0 mm 2 mps 681 mmHg 26%
    19:00 +18°C° 0 mm 2 mps 681 mmHg 29%
    20:00 +16°C° 0 mm 2 mps 681 mmHg 33%
    21:00 +15°C° 0 mm 2 mps 681 mmHg 35%
    22:00 +14°C° 0 mm 2 mps 681 mmHg 37%
    23:00 +13°C° 0 mm 2 mps 682 mmHg 38%
    Show more